Time,TemperatureF,DewpointF,PressureIn,WindDirection,WindDirectionDegrees,WindSpeedMPH,WindSpeedGustMPH,Humidity,HourlyPrecipIn,Conditions,Clouds,dailyrainin,SoftwareType,DateUTC
2013-02-24 00:00:00,25.7,21.0,30.01,West,262,7.0,10.0,82,0.00,,,0.00,WUHU216DAVISVP2,2013-02-24 05:00:00,
2013-02-24 00:05:00,25.7,21.0,30.01,West,269,5.0,11.0,82,0.00,,,0.00,WUHU216DAVISVP2,2013-02-24 05:05:00,
2013-02-24 00:10:00,25.7,21.0,30.01,West,271,6.0,11.0,82,0.00,,,0.00,WUHU216DAVISVP2,2013-02-24 05:10:00,
2013-02-24 00:15:00,25.8,21.3,30.01,West,277,7.0,11.0,83,0.00,,,0.00,WUHU216DAVISVP2,2013-02-24 05:15:00,
2013-02-24 00:20:00,25.7,21.2,30.01,WNW,285,10.0,11.0,83,0.00,,,0.00,WUHU216DAVISVP2,2013-02-24 05:20:00,
2013-02-24 00:25:00,25.8,21.3,30.01,WSW,253,9.0,10.0,83,0.00,,,0.00,WUHU216DAVISVP2,2013-02-24 05:25:00,
2013-02-24 00:30:00,25.8,21.3,30.01,WSW,253,8.0,11.0,83,0.00,,,0.00,WUHU216DAVISVP2,2013-02-24 05:30:00,
2013-02-24 00:35:00,25.8,21.3,30.01,WSW,257,9.0,11.0,83,0.00,,,0.00,WUHU216DAVISVP2,2013-02-24 05:35:00,
2013-02-24 00:40:00,25.9,21.4,30.01,West,263,11.0,13.0,83,0.00,,,0.00,WUHU216DAVISVP2,2013-02-24 05:40:00,
2013-02-24 00:45:00,25.9,21.4,30.01,West,266,11.0,14.0,83,0.00,,,0.00,WUHU216DAVISVP2,2013-02-24 05:45:00,
2013-02-24 00:50:00,25.9,21.4,30.01,WSW,238,11.0,14.0,83,0.00,,,0.00,WUHU216DAVISVP2,2013-02-24 05:50:00,
2013-02-24 00:55:00,25.9,20.9,30.01,West,266,8.0,16.0,81,0.00,,,0.00,WUHU216DAVISVP2,2013-02-24 05:55:00,
2013-02-24 01:00:00,26.0,21.0,30.01,West,260,5.0,16.0,81,0.00,,,0.00,WUHU216DAVISVP2,2013-02-24 06:00:00,
2013-02-24 01:05:00,25.9,21.2,30.01,West,262,6.0,16.0,82,0.00,,,0.00,WUHU216DAVISVP2,2013-02-24 06:05:00,
2013-02-24 01:10:00,26.0,21.2,30.01,West,266,9.0,14.0,82,0.00,,,0.00,WUHU216DAVISVP2,2013-02-24 06:10:00,
2013-02-24 01:15:00,26.0,21.2,30.01,WSW,255,8.0,12.0,82,0.00,,,0.00,WUHU216DAVISVP2,2013-02-24 06:15:00,
2013-02-24 01:20:00,26.0,21.2,30.01,West,259,9.0,12.0,82,0.00,,,0.00,WUHU216DAVISVP2,2013-02-24 06:20:00,
2013-02-24 01:25:00,26.1,21.3,30.01,WSW,257,12.0,17.0,82,0.00,,,0.00,WUHU216DAVISVP2,2013-02-24 06:25:00,
2013-02-24 01:30:00,26.1,21.3,30.01,WSW,253,14.0,17.0,82,0.00,,,0.00,WUHU216DAVISVP2,2013-02-24 06:30:00,
2013-02-24 01:35:00,26.1,21.3,30.01,WSW,257,9.0,17.0,82,0.00,,,0.00,WUHU216DAVISVP2,2013-02-24 06:35:00,
2013-02-24 01:40:00,26.1,21.3,30.02,West,262,12.0,17.0,82,0.00,,,0.00,WUHU216DAVISVP2,2013-02-24 06:40:00,
2013-02-24 01:45:00,26.2,21.4,30.02,WSW,255,10.0,15.0,82,0.00,,,0.00,WUHU216DAVISVP2,2013-02-24 06:45:00,
2013-02-24 01:50:00,26.2,21.2,30.02,WSW,257,12.0,18.0,81,0.00,,,0.00,WUHU216DAVISVP2,2013-02-24 06:50:00,
2013-02-24 01:55:00,26.3,21.3,30.02,West,276,10.0,18.0,81,0.00,,,0.00,WUHU216DAVISVP2,2013-02-24 06:55:00,
2013-02-24 02:00:00,26.3,21.5,30.02,West,274,8.0,18.0,82,0.00,,,0.00,WUHU216DAVISVP2,2013-02-24 07:00:00,
2013-02-24 02:05:00,26.3,21.5,30.03,West,267,10.0,18.0,82,0.00,,,0.00,WUHU216DAVISVP2,2013-02-24 07:05:00,
2013-02-24 02:10:00,26.2,21.7,30.03,West,271,6.0,15.0,83,0.00,,,0.00,WUHU216DAVISVP2,2013-02-24 07:10:00,
2013-02-24 02:15:00,26.2,21.7,30.03,WSW,255,8.0,15.0,83,0.00,,,0.00,WUHU216DAVISVP2,2013-02-24 07:15:00,
2013-02-24 02:20:00,26.1,21.6,30.03,WSW,256,11.0,15.0,83,0.00,,,0.00,WUHU216DAVISVP2,2013-02-24 07:20:00,
2013-02-24 02:25:00,26.2,21.2,30.03,West,266,9.0,16.0,81,0.00,,,0.00,WUHU216DAVISVP2,2013-02-24 07:25:00,
2013-02-24 02:30:00,26.2,21.5,30.03,West,269,10.0,16.0,82,0.00,,,0.00,WUHU216DAVISVP2,2013-02-24 07:30:00,
2013-02-24 02:35:00,26.2,21.5,30.03,West,270,9.0,16.0,82,0.00,,,0.00,WUHU216DAVISVP2,2013-02-24 07:35:00,
2013-02-24 02:40:00,26.1,21.4,30.03,West,281,9.0,15.0,82,0.00,,,0.00,WUHU216DAVISVP2,2013-02-24 07:40:00,
2013-02-24 02:45:00,26.1,21.4,30.03,West,266,8.0,12.0,82,0.00,,,0.00,WUHU216DAVISVP2,2013-02-24 07:45:00,
2013-02-24 02:50:00,26.1,21.4,30.03,West,271,8.0,12.0,82,0.00,,,0.00,WUHU216DAVISVP2,2013-02-24 07:50:00,
2013-02-24 02:55:00,26.0,21.5,30.03,West,273,7.0,12.0,83,0.00,,,0.00,WUHU216DAVISVP2,2013-02-24 07:55:00,
2013-02-24 03:00:00,26.0,21.5,30.03,West,268,7.0,12.0,83,0.00,,,0.00,WUHU216DAVISVP2,2013-02-24 08:00:00,
2013-02-24 03:05:00,25.9,21.7,30.02,West,270,4.0,11.0,84,0.00,,,0.00,WUHU216DAVISVP2,2013-02-24 08:05:00,
2013-02-24 03:10:00,25.9,21.7,30.03,WSW,250,7.0,11.0,84,0.00,,,0.00,WUHU216DAVISVP2,2013-02-24 08:10:00,
2013-02-24 03:15:00,25.8,21.6,30.03,WSW,250,8.0,10.0,84,0.00,,,0.00,WUHU216DAVISVP2,2013-02-24 08:15:00,
2013-02-24 03:20:00,25.7,21.8,30.02,WSW,253,7.0,12.0,85,0.00,,,0.00,WUHU216DAVISVP2,2013-02-24 08:20:00,
2013-02-24 03:25:00,25.6,22.0,30.02,WSW,248,9.0,12.0,86,0.00,,,0.00,WUHU216DAVISVP2,2013-02-24 08:25:00,
2013-02-24 03:30:00,25.3,21.7,30.03,WSW,250,10.0,12.0,86,0.00,,,0.00,WUHU216DAVISVP2,2013-02-24 08:30:00,
2013-02-24 03:35:00,25.1,21.8,30.03,WSW,253,6.0,12.0,87,0.00,,,0.00,WUHU216DAVISVP2,2013-02-24 08:35:00,
2013-02-24 03:40:00,24.7,21.4,30.03,WSW,248,7.0,12.0,87,0.00,,,0.00,WUHU216DAVISVP2,2013-02-24 08:40:00,
2013-02-24 03:45:00,24.4,21.1,30.03,WSW,255,8.0,12.0,87,0.00,,,0.00,WUHU216DAVISVP2,2013-02-24 08:45:00,
2013-02-24 03:50:00,24.1,21.1,30.03,WSW,255,6.0,12.0,88,0.00,,,0.00,WUHU216DAVISVP2,2013-02-24 08:50:00,
2013-02-24 03:55:00,23.9,20.8,30.03,WSW,248,8.0,10.0,88,0.00,,,0.00,WUHU216DAVISVP2,2013-02-24 08:55:00,
2013-02-24 04:00:00,23.7,20.6,30.03,WSW,249,7.0,10.0,88,0.00,,,0.00,WUHU216DAVISVP2,2013-02-24 09:00:00,
2013-02-24 04:05:00,23.5,20.7,30.03,WSW,246,7.0,10.0,89,0.00,,,0.00,WUHU216DAVISVP2,2013-02-24 09:05:00,
2013-02-24 04:10:00,23.3,20.5,30.03,WSW,252,7.0,10.0,89,0.00,,,0.00,WUHU216DAVISVP2,2013-02-24 09:10:00,
2013-02-24 04:15:00,23.0,20.2,30.03,WSW,251,6.0,9.0,89,0.00,,,0.00,WUHU216DAVISVP2,2013-02-24 09:15:00,
2013-02-24 04:20:00,22.8,20.0,30.03,WSW,253,5.0,9.0,89,0.00,,,0.00,WUHU216DAVISVP2,2013-02-24 09:20:00,
2013-02-24 04:25:00,22.6,19.8,30.03,WSW,248,6.0,8.0,89,0.00,,,0.00,WUHU216DAVISVP2,2013-02-24 09:25:00,
2013-02-24 04:30:00,22.4,19.6,30.04,WSW,249,6.0,7.0,89,0.00,,,0.00,WUHU216DAVISVP2,2013-02-24 09:30:00,
2013-02-24 04:35:00,22.2,19.4,30.04,WSW,249,5.0,7.0,89,0.00,,,0.00,WUHU216DAVISVP2,2013-02-24 09:35:00,
2013-02-24 04:40:00,22.0,19.5,30.04,WSW,253,4.0,7.0,90,0.00,,,0.00,WUHU216DAVISVP2,2013-02-24 09:40:00,
2013-02-24 04:45:00,21.9,19.4,30.04,WSW,246,5.0,7.0,90,0.00,,,0.00,WUHU216DAVISVP2,2013-02-24 09:45:00,
2013-02-24 04:50:00,21.8,19.3,30.04,WSW,256,5.0,7.0,90,0.00,,,0.00,WUHU216DAVISVP2,2013-02-24 09:50:00,
2013-02-24 04:55:00,21.8,19.3,30.04,WSW,253,4.0,7.0,90,0.00,,,0.00,WUHU216DAVISVP2,2013-02-24 09:55:00,
2013-02-24 05:00:00,21.6,19.1,30.05,WSW,250,4.0,7.0,90,0.00,,,0.00,WUHU216DAVISVP2,2013-02-24 10:00:00,
2013-02-24 05:05:00,21.5,19.0,30.05,WSW,246,5.0,7.0,90,0.00,,,0.00,WUHU216DAVISVP2,2013-02-24 10:05:00,
2013-02-24 05:10:00,21.4,18.9,30.05,WSW,250,4.0,7.0,90,0.00,,,0.00,WUHU216DAVISVP2,2013-02-24 10:10:00,
2013-02-24 05:15:00,21.3,19.0,30.05,WSW,249,4.0,6.0,91,0.00,,,0.00,WUHU216DAVISVP2,2013-02-24 10:15:00,
2013-02-24 05:20:00,21.1,18.8,30.06,WSW,243,4.0,5.0,91,0.00,,,0.00,WUHU216DAVISVP2,2013-02-24 10:20:00,
2013-02-24 05:25:00,21.0,18.7,30.06,WSW,253,5.0,6.0,91,0.00,,,0.00,WUHU216DAVISVP2,2013-02-24 10:25:00,
2013-02-24 05:30:00,20.9,18.6,30.06,WSW,246,4.0,6.0,91,0.00,,,0.00,WUHU216DAVISVP2,2013-02-24 10:30:00,
2013-02-24 05:35:00,20.6,18.1,30.06,WSW,248,2.0,5.0,90,0.00,,,0.00,WUHU216DAVISVP2,2013-02-24 10:35:00,
2013-02-24 05:40:00,20.4,18.1,30.07,WSW,245,3.0,5.0,91,0.00,,,0.00,WUHU216DAVISVP2,2013-02-24 10:40:00,
2013-02-24 05:45:00,20.3,18.0,30.06,WSW,252,1.0,5.0,91,0.00,,,0.00,WUHU216DAVISVP2,2013-02-24 10:45:00,
2013-02-24 05:50:00,20.1,17.8,30.06,West,261,2.0,5.0,91,0.00,,,0.00,WUHU216DAVISVP2,2013-02-24 10:50:00,
2013-02-24 05:55:00,20.1,17.8,30.06,WNW,283,0.0,5.0,91,0.00,,,0.00,WUHU216DAVISVP2,2013-02-24 10:55:00,
2013-02-24 06:00:00,20.3,18.3,30.07,WSW,249,2.0,4.0,92,0.00,,,0.00,WUHU216DAVISVP2,2013-02-24 11:00:00,
2013-02-24 06:05:00,20.3,18.0,30.07,SW,232,3.0,4.0,91,0.00,,,0.00,WUHU216DAVISVP2,2013-02-24 11:05:00,
2013-02-24 06:10:00,20.0,17.7,30.07,WSW,238,2.0,4.0,91,0.00,,,0.00,WUHU216DAVISVP2,2013-02-24 11:10:00,
2013-02-24 06:15:00,19.7,17.4,30.07,SW,229,2.0,4.0,91,0.00,,,0.00,WUHU216DAVISVP2,2013-02-24 11:15:00,
2013-02-24 06:20:00,19.4,17.2,30.07,SW,229,2.0,3.0,91,0.00,,,0.00,WUHU216DAVISVP2,2013-02-24 11:20:00,
2013-02-24 06:25:00,19.4,17.4,30.08,SW,226,3.0,3.0,92,0.00,,,0.00,WUHU216DAVISVP2,2013-02-24 11:25:00,
2013-02-24 06:30:00,19.4,17.4,30.08,SW,229,4.0,4.0,92,0.00,,,0.00,WUHU216DAVISVP2,2013-02-24 11:30:00,
2013-02-24 06:35:00,19.4,17.4,30.08,SW,226,4.0,5.0,92,0.00,,,0.00,WUHU216DAVISVP2,2013-02-24 11:35:00,
2013-02-24 06:40:00,19.0,17.0,30.09,SW,228,5.0,5.0,92,0.00,,,0.00,WUHU216DAVISVP2,2013-02-24 11:40:00,
2013-02-24 06:45:00,18.8,16.8,30.09,SW,232,4.0,5.0,92,0.00,,,0.00,WUHU216DAVISVP2,2013-02-24 11:45:00,
2013-02-24 06:50:00,18.7,16.7,30.09,SW,226,4.0,5.0,92,0.00,,,0.00,WUHU216DAVISVP2,2013-02-24 11:50:00,
2013-02-24 06:55:00,18.6,16.6,30.09,SW,232,4.0,5.0,92,0.00,,,0.00,WUHU216DAVISVP2,2013-02-24 11:55:00,
2013-02-24 07:00:00,18.5,16.5,30.09,WSW,245,3.0,5.0,92,0.00,,,0.00,WUHU216DAVISVP2,2013-02-24 12:00:00,
2013-02-24 07:05:00,18.5,16.5,30.09,WSW,240,4.0,4.0,92,0.00,,,0.00,WUHU216DAVISVP2,2013-02-24 12:05:00,
2013-02-24 07:10:00,18.6,16.9,30.09,WSW,243,3.0,4.0,93,0.00,,,0.00,WUHU216DAVISVP2,2013-02-24 12:10:00,
2013-02-24 07:15:00,18.8,17.1,30.09,WSW,250,2.0,4.0,93,0.00,,,0.00,WUHU216DAVISVP2,2013-02-24 12:15:00,
2013-02-24 07:20:00,18.6,16.6,30.09,WSW,238,3.0,4.0,92,0.00,,,0.00,WUHU216DAVISVP2,2013-02-24 12:20:00,
2013-02-24 07:25:00,18.2,16.2,30.10,SW,224,4.0,4.0,92,0.00,,,0.00,WUHU216DAVISVP2,2013-02-24 12:25:00,
2013-02-24 07:30:00,17.8,15.8,30.10,SW,225,4.0,5.0,92,0.00,,,0.00,WUHU216DAVISVP2,2013-02-24 12:30:00,
2013-02-24 07:35:00,17.8,16.1,30.10,SW,218,5.0,6.0,93,0.00,,,0.00,WUHU216DAVISVP2,2013-02-24 12:35:00,
2013-02-24 07:40:00,18.1,16.4,30.10,SW,226,5.0,6.0,93,0.00,,,0.00,WUHU216DAVISVP2,2013-02-24 12:40:00,
2013-02-24 07:45:00,18.2,16.5,30.10,SW,229,5.0,6.0,93,0.00,,,0.00,WUHU216DAVISVP2,2013-02-24 12:45:00,
2013-02-24 07:50:00,18.4,16.7,30.11,SW,235,4.0,6.0,93,0.00,,,0.00,WUHU216DAVISVP2,2013-02-24 12:50:00,
2013-02-24 07:55:00,18.5,16.5,30.11,SW,235,4.0,6.0,92,0.00,,,0.00,WUHU216DAVISVP2,2013-02-24 12:55:00,
2013-02-24 08:00:00,18.7,16.7,30.11,SW,232,4.0,6.0,92,0.00,,,0.00,WUHU216DAVISVP2,2013-02-24 13:00:00,
2013-02-24 08:05:00,19.0,17.0,30.11,SW,231,4.0,5.0,92,0.00,,,0.00,WUHU216DAVISVP2,2013-02-24 13:05:00,
2013-02-24 08:10:00,19.4,17.4,30.11,SW,226,6.0,7.0,92,0.00,,,0.00,WUHU216DAVISVP2,2013-02-24 13:10:00,
2013-02-24 08:15:00,19.8,17.8,30.11,WSW,240,4.0,7.0,92,0.00,,,0.00,WUHU216DAVISVP2,2013-02-24 13:15:00,
2013-02-24 08:20:00,20.1,18.1,30.11,SW,229,6.0,9.0,92,0.00,,,0.00,WUHU216DAVISVP2,2013-02-24 13:20:00,
2013-02-24 08:25:00,20.4,18.4,30.12,SW,231,10.0,10.0,92,0.00,,,0.00,WUHU216DAVISVP2,2013-02-24 13:25:00,
2013-02-24 08:30:00,20.7,18.7,30.12,SW,232,8.0,11.0,92,0.00,,,0.00,WUHU216DAVISVP2,2013-02-24 13:30:00,
2013-02-24 08:35:00,20.9,18.6,30.12,SW,226,10.0,12.0,91,0.00,,,0.00,WUHU216DAVISVP2,2013-02-24 13:35:00,
2013-02-24 08:40:00,21.1,18.8,30.13,SW,235,9.0,12.0,91,0.00,,,0.00,WUHU216DAVISVP2,2013-02-24 13:40:00,
2013-02-24 08:45:00,21.3,19.0,30.13,SW,232,11.0,12.0,91,0.00,,,0.00,WUHU216DAVISVP2,2013-02-24 13:45:00,
2013-02-24 08:50:00,21.5,19.2,30.13,SW,236,10.0,12.0,91,0.00,,,0.00,WUHU216DAVISVP2,2013-02-24 13:50:00,
2013-02-24 08:55:00,21.7,19.2,30.13,WSW,242,8.0,12.0,90,0.00,,,0.00,WUHU216DAVISVP2,2013-02-24 13:55:00,
2013-02-24 09:00:00,22.0,19.5,30.13,SW,236,11.0,12.0,90,0.00,,,0.00,WUHU216DAVISVP2,2013-02-24 14:00:00,
2013-02-24 09:05:00,22.2,19.7,30.13,WSW,255,6.0,12.0,90,0.00,,,0.00,WUHU216DAVISVP2,2013-02-24 14:05:00,
2013-02-24 09:10:00,22.3,19.5,30.13,WSW,253,8.0,12.0,89,0.00,,,0.00,WUHU216DAVISVP2,2013-02-24 14:10:00,
2013-02-24 09:15:00,22.6,19.8,30.13,WSW,256,8.0,12.0,89,0.00,,,0.00,WUHU216DAVISVP2,2013-02-24 14:15:00,
2013-02-24 09:20:00,22.8,20.0,30.13,West,260,7.0,11.0,89,0.00,,,0.00,WUHU216DAVISVP2,2013-02-24 14:20:00,
2013-02-24 09:25:00,23.0,20.2,30.13,WSW,246,6.0,11.0,89,0.00,,,0.00,WUHU216DAVISVP2,2013-02-24 14:25:00,
2013-02-24 09:30:00,23.4,20.6,30.14,West,271,6.0,10.0,89,0.00,,,0.00,WUHU216DAVISVP2,2013-02-24 14:30:00,
2013-02-24 09:35:00,23.6,20.5,30.14,WSW,258,6.0,9.0,88,0.00,,,0.00,WUHU216DAVISVP2,2013-02-24 14:35:00,
2013-02-24 09:40:00,23.8,20.7,30.14,West,264,5.0,9.0,88,0.00,,,0.00,WUHU216DAVISVP2,2013-02-24 14:40:00,
2013-02-24 09:45:00,24.0,20.7,30.14,WSW,255,6.0,9.0,87,0.00,,,0.00,WUHU216DAVISVP2,2013-02-24 14:45:00,
2013-02-24 09:50:00,24.3,20.9,30.14,WSW,249,3.0,9.0,87,0.00,,,0.00,WUHU216DAVISVP2,2013-02-24 14:50:00,
2013-02-24 09:55:00,24.6,21.0,30.14,West,259,5.0,8.0,86,0.00,,,0.00,WUHU216DAVISVP2,2013-02-24 14:55:00,
2013-02-24 10:00:00,25.0,21.6,30.14,WSW,250,6.0,7.0,87,0.00,,,0.00,WUHU216DAVISVP2,2013-02-24 15:00:00,
2013-02-24 10:05:00,25.3,21.7,30.14,SW,233,6.0,7.0,86,0.00,,,0.00,WUHU216DAVISVP2,2013-02-24 15:05:00,
2013-02-24 10:10:00,25.5,21.9,30.14,WSW,238,5.0,7.0,86,0.00,,,0.00,WUHU216DAVISVP2,2013-02-24 15:10:00,
2013-02-24 10:15:00,26.0,22.4,30.14,SW,236,4.0,7.0,86,0.00,,,0.00,WUHU216DAVISVP2,2013-02-24 15:15:00,
2013-02-24 10:20:00,26.4,22.5,30.14,WSW,256,5.0,7.0,85,0.00,,,0.00,WUHU216DAVISVP2,2013-02-24 15:20:00,
2013-02-24 10:25:00,26.6,22.7,30.14,WSW,250,5.0,8.0,85,0.00,,,0.00,WUHU216DAVISVP2,2013-02-24 15:25:00,
2013-02-24 10:30:00,26.9,22.7,30.14,SW,223,2.0,8.0,84,0.00,,,0.00,WUHU216DAVISVP2,2013-02-24 15:30:00,
2013-02-24 10:35:00,27.3,23.1,30.15,SW,228,5.0,8.0,84,0.00,,,0.00,WUHU216DAVISVP2,2013-02-24 15:35:00,
2013-02-24 10:40:00,27.6,23.1,30.15,SW,233,6.0,8.0,83,0.00,,,0.00,WUHU216DAVISVP2,2013-02-24 15:40:00,
2013-02-24 10:45:00,27.9,23.4,30.15,WSW,249,7.0,10.0,83,0.00,,,0.00,WUHU216DAVISVP2,2013-02-24 15:45:00,
2013-02-24 10:50:00,28.0,23.2,30.16,SW,229,9.0,10.0,82,0.00,,,0.00,WUHU216DAVISVP2,2013-02-24 15:50:00,
2013-02-24 10:55:00,28.2,23.7,30.16,WSW,238,8.0,10.0,83,0.00,,,0.00,WUHU216DAVISVP2,2013-02-24 15:55:00,
2013-02-24 11:00:00,28.2,23.1,30.16,WSW,240,7.0,10.0,81,0.00,,,0.00,WUHU216DAVISVP2,2013-02-24 16:00:00,
2013-02-24 11:05:00,28.3,23.5,30.16,SW,236,5.0,10.0,82,0.00,,,0.00,WUHU216DAVISVP2,2013-02-24 16:05:00,
2013-02-24 11:10:00,28.6,23.8,30.16,SW,235,6.0,11.0,82,0.00,,,0.00,WUHU216DAVISVP2,2013-02-24 16:10:00,
2013-02-24 11:15:00,28.8,24.0,30.16,SW,228,10.0,12.0,82,0.00,,,0.00,WUHU216DAVISVP2,2013-02-24 16:15:00,
2013-02-24 11:20:00,28.8,23.7,30.16,SW,223,8.0,12.0,81,0.00,,,0.00,WUHU216DAVISVP2,2013-02-24 16:20:00,
2013-02-24 11:25:00,28.9,23.5,30.16,WSW,246,8.0,12.0,80,0.00,,,0.00,WUHU216DAVISVP2,2013-02-24 16:25:00,
2013-02-24 11:30:00,29.0,23.9,30.16,WSW,240,9.0,13.0,81,0.00,,,0.00,WUHU216DAVISVP2,2013-02-24 16:30:00,
2013-02-24 11:35:00,29.3,24.2,30.16,WSW,243,9.0,13.0,81,0.00,,,0.00,WUHU216DAVISVP2,2013-02-24 16:35:00,
2013-02-24 11:40:00,29.4,24.3,30.16,SW,226,10.0,12.0,81,0.00,,,0.00,WUHU216DAVISVP2,2013-02-24 16:40:00,
2013-02-24 11:45:00,29.6,24.5,30.16,WSW,256,7.0,12.0,81,0.00,,,0.00,WUHU216DAVISVP2,2013-02-24 16:45:00,
2013-02-24 11:50:00,30.0,24.9,30.17,WSW,252,7.0,11.0,81,0.00,,,0.00,WUHU216DAVISVP2,2013-02-24 16:50:00,
2013-02-24 11:55:00,30.0,24.6,30.16,West,262,5.0,10.0,80,0.00,,,0.00,WUHU216DAVISVP2,2013-02-24 16:55:00,
2013-02-24 12:00:00,30.3,25.2,30.17,SW,221,5.0,12.0,81,0.00,,,0.00,WUHU216DAVISVP2,2013-02-24 17:00:00,
2013-02-24 12:05:00,30.6,24.9,30.17,West,266,7.0,12.0,79,0.00,,,0.00,WUHU216DAVISVP2,2013-02-24 17:05:00,
2013-02-24 12:10:00,30.5,23.9,30.17,West,262,8.0,11.0,76,0.00,,,0.00,WUHU216DAVISVP2,2013-02-24 17:10:00,
2013-02-24 12:15:00,30.5,23.9,30.17,West,271,3.0,11.0,76,0.00,,,0.00,WUHU216DAVISVP2,2013-02-24 17:15:00,
2013-02-24 12:20:00,30.8,24.8,30.17,WSW,238,6.0,10.0,78,0.00,,,0.00,WUHU216DAVISVP2,2013-02-24 17:20:00,
2013-02-24 12:25:00,31.2,25.2,30.17,WSW,252,8.0,12.0,78,0.00,,,0.00,WUHU216DAVISVP2,2013-02-24 17:25:00,
2013-02-24 12:30:00,31.4,24.7,30.17,WNW,284,4.0,12.0,76,0.00,,,0.00,WUHU216DAVISVP2,2013-02-24 17:30:00,
2013-02-24 12:35:00,31.6,24.3,30.17,WSW,255,5.0,11.0,74,0.00,,,0.00,WUHU216DAVISVP2,2013-02-24 17:35:00,
2013-02-24 12:40:00,31.7,24.7,30.17,WSW,240,7.0,11.0,75,0.00,,,0.00,WUHU216DAVISVP2,2013-02-24 17:40:00,
2013-02-24 12:45:00,31.9,24.6,30.17,WSW,243,10.0,11.0,74,0.00,,,0.00,WUHU216DAVISVP2,2013-02-24 17:45:00,
2013-02-24 12:50:00,32.2,25.2,30.17,SW,215,4.0,11.0,75,0.00,,,0.00,WUHU216DAVISVP2,2013-02-24 17:50:00,
2013-02-24 12:55:00,32.3,24.3,30.17,WSW,248,6.0,10.0,72,0.00,,,0.00,WUHU216DAVISVP2,2013-02-24 17:55:00,
2013-02-24 13:00:00,32.3,24.3,30.17,West,277,1.0,10.0,72,0.00,,,0.00,WUHU216DAVISVP2,2013-02-24 18:00:00,
2013-02-24 13:05:00,32.4,24.4,30.17,SW,229,5.0,10.0,72,0.00,,,0.00,WUHU216DAVISVP2,2013-02-24 18:05:00,
2013-02-24 13:10:00,32.8,25.8,30.17,West,264,3.0,11.0,75,0.00,,,0.00,WUHU216DAVISVP2,2013-02-24 18:10:00,
2013-02-24 13:15:00,33.2,26.2,30.17,West,271,6.0,11.0,75,0.00,,,0.00,WUHU216DAVISVP2,2013-02-24 18:15:00,
2013-02-24 13:20:00,33.2,25.2,30.17,West,264,3.0,10.0,72,0.00,,,0.00,WUHU216DAVISVP2,2013-02-24 18:20:00,
2013-02-24 13:25:00,33.3,25.6,30.16,SW,228,4.0,10.0,73,0.00,,,0.00,WUHU216DAVISVP2,2013-02-24 18:25:00,
2013-02-24 13:30:00,33.5,25.5,30.16,West,263,4.0,11.0,72,0.00,,,0.00,WUHU216DAVISVP2,2013-02-24 18:30:00,
2013-02-24 13:35:00,33.5,25.2,30.16,SW,228,6.0,11.0,71,0.00,,,0.00,WUHU216DAVISVP2,2013-02-24 18:35:00,
2013-02-24 13:40:00,33.3,24.9,30.16,SW,221,8.0,11.0,71,0.00,,,0.00,WUHU216DAVISVP2,2013-02-24 18:40:00,
2013-02-24 13:45:00,33.3,24.6,30.16,WSW,246,4.0,11.0,70,0.00,,,0.00,WUHU216DAVISVP2,2013-02-24 18:45:00,
2013-02-24 13:50:00,33.3,25.3,30.16,SW,219,3.0,10.0,72,0.00,,,0.00,WUHU216DAVISVP2,2013-02-24 18:50:00,
2013-02-24 13:55:00,33.5,25.2,30.16,WSW,252,6.0,10.0,71,0.00,,,0.00,WUHU216DAVISVP2,2013-02-24 18:55:00,
2013-02-24 14:00:00,33.6,25.6,30.16,SW,231,6.0,14.0,72,0.00,,,0.00,WUHU216DAVISVP2,2013-02-24 19:00:00,
2013-02-24 14:05:00,33.6,25.3,30.16,SSW,212,6.0,14.0,71,0.00,,,0.00,WUHU216DAVISVP2,2013-02-24 19:05:00,
2013-02-24 14:10:00,33.7,25.7,30.16,WSW,240,5.0,13.0,72,0.00,,,0.00,WUHU216DAVISVP2,2013-02-24 19:10:00,
2013-02-24 14:15:00,33.8,25.1,30.15,WSW,246,4.0,13.0,70,0.00,,,0.00,WUHU216DAVISVP2,2013-02-24 19:15:00,
2013-02-24 14:20:00,33.7,25.3,30.15,SSW,196,3.0,11.0,71,0.00,,,0.00,WUHU216DAVISVP2,2013-02-24 19:20:00,
2013-02-24 14:25:00,34.0,25.6,30.15,WSW,249,7.0,11.0,71,0.00,,,0.00,WUHU216DAVISVP2,2013-02-24 19:25:00,
2013-02-24 14:30:00,34.1,25.7,30.16,WNW,289,5.0,10.0,71,0.00,,,0.00,WUHU216DAVISVP2,2013-02-24 19:30:00,
2013-02-24 14:35:00,34.1,26.1,30.15,SW,227,2.0,10.0,72,0.00,,,0.00,WUHU216DAVISVP2,2013-02-24 19:35:00,
2013-02-24 14:40:00,34.5,26.5,30.15,West,274,8.0,11.0,72,0.00,,,0.00,WUHU216DAVISVP2,2013-02-24 19:40:00,
2013-02-24 14:45:00,34.5,26.1,30.15,WSW,253,4.0,11.0,71,0.00,,,0.00,WUHU216DAVISVP2,2013-02-24 19:45:00,
2013-02-24 14:50:00,34.6,26.6,30.15,West,280,5.0,13.0,72,0.00,,,0.00,WUHU216DAVISVP2,2013-02-24 19:50:00,
2013-02-24 14:55:00,34.7,26.3,30.16,WSW,252,4.0,13.0,71,0.00,,,0.00,WUHU216DAVISVP2,2013-02-24 19:55:00,
2013-02-24 15:00:00,34.7,26.0,30.16,West,262,6.0,13.0,70,0.00,,,0.00,WUHU216DAVISVP2,2013-02-24 20:00:00,
2013-02-24 15:05:00,34.6,25.5,30.15,SW,235,1.0,13.0,69,0.00,,,0.00,WUHU216DAVISVP2,2013-02-24 20:05:00,
2013-02-24 15:10:00,34.9,25.8,30.16,West,262,2.0,10.0,69,0.00,,,0.00,WUHU216DAVISVP2,2013-02-24 20:10:00,
2013-02-24 15:15:00,34.9,25.5,30.16,NW,321,2.0,9.0,68,0.00,,,0.00,WUHU216DAVISVP2,2013-02-24 20:15:00,
2013-02-24 15:20:00,34.8,25.4,30.16,WNW,294,0.0,8.0,68,0.00,,,0.00,WUHU216DAVISVP2,2013-02-24 20:20:00,
2013-02-24 15:25:00,35.1,26.7,30.16,SSW,197,3.0,8.0,71,0.00,,,0.00,WUHU216DAVISVP2,2013-02-24 20:25:00,
2013-02-24 15:30:00,35.5,26.4,30.16,WSW,250,0.0,6.0,69,0.00,,,0.00,WUHU216DAVISVP2,2013-02-24 20:30:00,
2013-02-24 15:35:00,35.8,27.0,30.16,WNW,285,2.0,7.0,70,0.00,,,0.00,WUHU216DAVISVP2,2013-02-24 20:35:00,
2013-02-24 15:40:00,35.7,26.2,30.16,SW,224,4.0,7.0,68,0.00,,,0.00,WUHU216DAVISVP2,2013-02-24 20:40:00,
2013-02-24 15:45:00,35.7,25.5,30.16,West,281,1.0,7.0,66,0.00,,,0.00,WUHU216DAVISVP2,2013-02-24 20:45:00,
2013-02-24 15:50:00,35.7,26.2,30.16,West,269,1.0,7.0,68,0.00,,,0.00,WUHU216DAVISVP2,2013-02-24 20:50:00,
2013-02-24 15:55:00,35.9,26.4,30.16,SW,235,0.0,7.0,68,0.00,,,0.00,WUHU216DAVISVP2,2013-02-24 20:55:00,
2013-02-24 16:00:00,36.1,25.9,30.16,WSW,255,5.0,7.0,66,0.00,,,0.00,WUHU216DAVISVP2,2013-02-24 21:00:00,
2013-02-24 16:05:00,36.0,26.1,30.16,WSW,250,5.0,6.0,67,0.00,,,0.00,WUHU216DAVISVP2,2013-02-24 21:05:00,
2013-02-24 16:10:00,36.0,26.1,30.16,NNW,330,0.0,6.0,67,0.00,,,0.00,WUHU216DAVISVP2,2013-02-24 21:10:00,
2013-02-24 16:15:00,36.1,26.6,30.16,WSW,250,3.0,6.0,68,0.00,,,0.00,WUHU216DAVISVP2,2013-02-24 21:15:00,
2013-02-24 16:20:00,36.0,25.4,30.16,NW,315,1.0,6.0,65,0.00,,,0.00,WUHU216DAVISVP2,2013-02-24 21:20:00,
2013-02-24 16:25:00,36.0,25.4,30.16,WSW,255,1.0,6.0,65,0.00,,,0.00,WUHU216DAVISVP2,2013-02-24 21:25:00,
2013-02-24 16:30:00,36.3,27.2,30.16,WSW,243,4.0,7.0,69,0.00,,,0.00,WUHU216DAVISVP2,2013-02-24 21:30:00,
2013-02-24 16:35:00,36.4,26.2,30.16,West,274,2.0,7.0,66,0.00,,,0.00,WUHU216DAVISVP2,2013-02-24 21:35:00,
2013-02-24 16:40:00,36.4,26.6,30.16,West,262,0.0,7.0,67,0.00,,,0.00,WUHU216DAVISVP2,2013-02-24 21:40:00,
2013-02-24 16:45:00,36.6,26.4,30.16,WNW,302,1.0,7.0,66,0.00,,,0.00,WUHU216DAVISVP2,2013-02-24 21:45:00,
2013-02-24 16:50:00,36.8,26.2,30.16,SW,222,0.0,5.0,65,0.00,,,0.00,WUHU216DAVISVP2,2013-02-24 21:50:00,
2013-02-24 16:55:00,36.7,26.0,30.16,WSW,250,3.0,5.0,65,0.00,,,0.00,WUHU216DAVISVP2,2013-02-24 21:55:00,
2013-02-24 17:00:00,36.7,26.8,30.16,WSW,242,3.0,5.0,67,0.00,,,0.00,WUHU216DAVISVP2,2013-02-24 22:00:00,
2013-02-24 17:05:00,36.5,26.3,30.17,WSW,240,4.0,5.0,66,0.00,,,0.00,WUHU216DAVISVP2,2013-02-24 22:05:00,
2013-02-24 17:10:00,36.4,25.7,30.17,NW,305,2.0,5.0,65,0.00,,,0.00,WUHU216DAVISVP2,2013-02-24 22:10:00,
2013-02-24 17:15:00,36.2,26.0,30.17,WNW,288,0.0,4.0,66,0.00,,,0.00,WUHU216DAVISVP2,2013-02-24 22:15:00,
2013-02-24 17:20:00,36.4,26.2,30.17,WNW,293,0.0,4.0,66,0.00,,,0.00,WUHU216DAVISVP2,2013-02-24 22:20:00,
2013-02-24 17:25:00,36.3,25.7,30.17,NW,314,0.0,4.0,65,0.00,,,0.00,WUHU216DAVISVP2,2013-02-24 22:25:00,
2013-02-24 17:30:00,36.5,25.9,30.17,West,280,0.0,3.0,65,0.00,,,0.00,WUHU216DAVISVP2,2013-02-24 22:30:00,
2013-02-24 17:35:00,36.7,25.7,30.17,WNW,299,0.0,2.0,64,0.00,,,0.00,WUHU216DAVISVP2,2013-02-24 22:35:00,
2013-02-24 17:40:00,36.5,25.8,30.17,WNW,302,0.0,2.0,65,0.00,,,0.00,WUHU216DAVISVP2,2013-02-24 22:40:00,
2013-02-24 17:45:00,36.3,25.7,30.17,WNW,290,1.0,2.0,65,0.00,,,0.00,WUHU216DAVISVP2,2013-02-24 22:45:00,
2013-02-24 17:50:00,36.2,25.9,30.17,West,277,0.0,2.0,66,0.00,,,0.00,WUHU216DAVISVP2,2013-02-24 22:50:00,
2013-02-24 17:55:00,36.1,25.5,30.17,WNW,282,0.0,2.0,65,0.00,,,0.00,WUHU216DAVISVP2,2013-02-24 22:55:00,
2013-02-24 18:00:00,35.9,25.3,30.17,NW,309,0.0,2.0,65,0.00,,,0.00,WUHU216DAVISVP2,2013-02-24 23:00:00,
2013-02-24 18:05:00,35.8,25.5,30.17,NW,309,0.0,2.0,66,0.00,,,0.00,WUHU216DAVISVP2,2013-02-24 23:05:00,
2013-02-24 18:10:00,35.7,25.9,30.17,NW,309,0.0,1.0,67,0.00,,,0.00,WUHU216DAVISVP2,2013-02-24 23:10:00,
2013-02-24 18:15:00,35.4,25.6,30.17,NW,309,0.0,0.0,67,0.00,,,0.00,WUHU216DAVISVP2,2013-02-24 23:15:00,
2013-02-24 18:20:00,35.2,25.4,30.18,NW,309,0.0,0.0,67,0.00,,,0.00,WUHU216DAVISVP2,2013-02-24 23:20:00,
2013-02-24 18:25:00,34.9,25.5,30.18,NW,309,0.0,0.0,68,0.00,,,0.00,WUHU216DAVISVP2,2013-02-24 23:25:00,
2013-02-24 18:30:00,34.4,25.3,30.18,NW,309,0.0,0.0,69,0.00,,,0.00,WUHU216DAVISVP2,2013-02-24 23:30:00,
2013-02-24 18:35:00,33.9,25.2,30.18,NW,309,0.0,0.0,70,0.00,,,0.00,WUHU216DAVISVP2,2013-02-24 23:35:00,
2013-02-24 18:40:00,33.4,25.4,30.18,NW,309,0.0,0.0,72,0.00,,,0.00,WUHU216DAVISVP2,2013-02-24 23:40:00,
2013-02-24 18:45:00,32.9,25.2,30.18,NW,309,0.0,0.0,73,0.00,,,0.00,WUHU216DAVISVP2,2013-02-24 23:45:00,
2013-02-24 18:50:00,32.4,24.8,30.18,NW,309,0.0,0.0,73,0.00,,,0.00,WUHU216DAVISVP2,2013-02-24 23:50:00,
2013-02-24 18:55:00,31.8,24.5,30.18,NW,309,0.0,0.0,74,0.00,,,0.00,WUHU216DAVISVP2,2013-02-24 23:55:00,
2013-02-24 19:00:00,31.2,23.9,30.18,NW,309,0.0,0.0,74,0.00,,,0.00,WUHU216DAVISVP2,2013-02-25 00:00:00,
2013-02-24 19:05:00,30.6,24.3,30.18,NW,309,0.0,0.0,77,0.00,,,0.00,WUHU216DAVISVP2,2013-02-25 00:05:00,
2013-02-24 19:10:00,30.3,24.3,30.19,SSW,212,0.0,0.0,78,0.00,,,0.00,WUHU216DAVISVP2,2013-02-25 00:10:00,
2013-02-24 19:15:00,30.5,24.2,30.19,SSW,205,0.0,0.0,77,0.00,,,0.00,WUHU216DAVISVP2,2013-02-25 00:15:00,
2013-02-24 19:20:00,30.6,24.3,30.19,SSW,203,0.0,0.0,77,0.00,,,0.00,WUHU216DAVISVP2,2013-02-25 00:20:00,
2013-02-24 19:25:00,30.6,24.3,30.19,SSW,203,0.0,0.0,77,0.00,,,0.00,WUHU216DAVISVP2,2013-02-25 00:25:00,
2013-02-24 19:30:00,30.4,24.1,30.19,SSW,203,0.0,0.0,77,0.00,,,0.00,WUHU216DAVISVP2,2013-02-25 00:30:00,
2013-02-24 19:35:00,30.1,23.8,30.20,SSW,203,0.0,0.0,77,0.00,,,0.00,WUHU216DAVISVP2,2013-02-25 00:35:00,
2013-02-24 19:40:00,29.7,23.7,30.20,SSW,203,0.0,0.0,78,0.00,,,0.00,WUHU216DAVISVP2,2013-02-25 00:40:00,
2013-02-24 19:45:00,29.2,23.5,30.20,SSW,203,0.0,0.0,79,0.00,,,0.00,WUHU216DAVISVP2,2013-02-25 00:45:00,
2013-02-24 19:50:00,28.9,23.5,30.20,SSW,203,0.0,0.0,80,0.00,,,0.00,WUHU216DAVISVP2,2013-02-25 00:50:00,
2013-02-24 19:55:00,28.6,23.8,30.20,SSW,193,0.0,1.0,82,0.00,,,0.00,WUHU216DAVISVP2,2013-02-25 00:55:00,
2013-02-24 20:00:00,28.3,23.5,30.20,SSW,193,0.0,1.0,82,0.00,,,0.00,WUHU216DAVISVP2,2013-02-25 01:00:00,
2013-02-24 20:05:00,27.9,23.1,30.20,SSW,193,0.0,1.0,82,0.00,,,0.00,WUHU216DAVISVP2,2013-02-25 01:05:00,
2013-02-24 20:10:00,27.6,22.8,30.20,SSW,193,0.0,1.0,82,0.00,,,0.00,WUHU216DAVISVP2,2013-02-25 01:10:00,
2013-02-24 20:15:00,27.2,22.4,30.20,SSW,193,0.0,0.0,82,0.00,,,0.00,WUHU216DAVISVP2,2013-02-25 01:15:00,
2013-02-24 20:20:00,27.4,23.5,30.20,SSW,193,0.0,0.0,85,0.00,,,0.00,WUHU216DAVISVP2,2013-02-25 01:20:00,
2013-02-24 20:25:00,28.0,24.3,30.20,SSW,193,0.0,0.0,86,0.00,,,0.00,WUHU216DAVISVP2,2013-02-25 01:25:00,
2013-02-24 20:30:00,28.3,24.4,30.20,ENE,68,0.0,0.0,85,0.00,,,0.00,WUHU216DAVISVP2,2013-02-25 01:30:00,
2013-02-24 20:35:00,28.8,24.8,30.20,ENE,65,0.0,0.0,85,0.00,,,0.00,WUHU216DAVISVP2,2013-02-25 01:35:00,
2013-02-24 20:40:00,29.0,24.8,30.20,ENE,65,0.0,0.0,84,0.00,,,0.00,WUHU216DAVISVP2,2013-02-25 01:40:00,
2013-02-24 20:45:00,28.8,24.3,30.20,ENE,65,0.0,0.0,83,0.00,,,0.00,WUHU216DAVISVP2,2013-02-25 01:45:00,
2013-02-24 20:50:00,28.4,23.9,30.20,ENE,65,0.0,0.0,83,0.00,,,0.00,WUHU216DAVISVP2,2013-02-25 01:50:00,
2013-02-24 20:55:00,27.9,23.4,30.20,ENE,65,0.0,0.0,83,0.00,,,0.00,WUHU216DAVISVP2,2013-02-25 01:55:00,
2013-02-24 21:00:00,27.6,23.4,30.20,ENE,65,0.0,0.0,84,0.00,,,0.00,WUHU216DAVISVP2,2013-02-25 02:00:00,
2013-02-24 21:05:00,27.3,23.1,30.20,ENE,65,0.0,0.0,84,0.00,,,0.00,WUHU216DAVISVP2,2013-02-25 02:05:00,
2013-02-24 21:10:00,27.4,23.7,30.20,ENE,65,0.0,0.0,86,0.00,,,0.00,WUHU216DAVISVP2,2013-02-25 02:10:00,
2013-02-24 21:15:00,27.3,23.6,30.20,ENE,65,0.0,0.0,86,0.00,,,0.00,WUHU216DAVISVP2,2013-02-25 02:15:00,
2013-02-24 21:20:00,27.1,23.7,30.20,ENE,65,0.0,0.0,87,0.00,,,0.00,WUHU216DAVISVP2,2013-02-25 02:20:00,
2013-02-24 21:25:00,26.9,23.5,30.20,ENE,65,0.0,0.0,87,0.00,,,0.00,WUHU216DAVISVP2,2013-02-25 02:25:00,
2013-02-24 21:30:00,26.5,23.1,30.20,ENE,65,0.0,0.0,87,0.00,,,0.00,WUHU216DAVISVP2,2013-02-25 02:30:00,
2013-02-24 21:35:00,26.3,23.0,30.20,ENE,65,0.0,0.0,87,0.00,,,0.00,WUHU216DAVISVP2,2013-02-25 02:35:00,
2013-02-24 21:40:00,26.4,23.3,30.20,ENE,65,0.0,0.0,88,0.00,,,0.00,WUHU216DAVISVP2,2013-02-25 02:40:00,
2013-02-24 21:45:00,26.3,23.2,30.20,ENE,65,0.0,0.0,88,0.00,,,0.00,WUHU216DAVISVP2,2013-02-25 02:45:00,
2013-02-24 21:50:00,26.0,22.9,30.20,ENE,65,0.0,0.0,88,0.00,,,0.00,WUHU216DAVISVP2,2013-02-25 02:50:00,
2013-02-24 21:55:00,26.0,23.2,30.20,ENE,65,0.0,0.0,89,0.00,,,0.00,WUHU216DAVISVP2,2013-02-25 02:55:00,
2013-02-24 22:00:00,26.1,23.3,30.20,ENE,65,0.0,0.0,89,0.00,,,0.00,WUHU216DAVISVP2,2013-02-25 03:00:00,
2013-02-24 22:05:00,26.2,23.4,30.20,ENE,65,0.0,0.0,89,0.00,,,0.00,WUHU216DAVISVP2,2013-02-25 03:05:00,
2013-02-24 22:10:00,26.3,23.5,30.21,ENE,65,0.0,0.0,89,0.00,,,0.00,WUHU216DAVISVP2,2013-02-25 03:10:00,
2013-02-24 22:15:00,26.1,23.3,30.21,ENE,65,0.0,0.0,89,0.00,,,0.00,WUHU216DAVISVP2,2013-02-25 03:15:00,
2013-02-24 22:20:00,26.0,23.5,30.21,ENE,65,0.0,0.0,90,0.00,,,0.00,WUHU216DAVISVP2,2013-02-25 03:20:00,
2013-02-24 22:25:00,25.9,23.4,30.21,ENE,65,0.0,0.0,90,0.00,,,0.00,WUHU216DAVISVP2,2013-02-25 03:25:00,
2013-02-24 22:30:00,25.9,23.4,30.21,ENE,65,0.0,0.0,90,0.00,,,0.00,WUHU216DAVISVP2,2013-02-25 03:30:00,
2013-02-24 22:35:00,26.1,23.6,30.21,ENE,65,0.0,0.0,90,0.00,,,0.00,WUHU216DAVISVP2,2013-02-25 03:35:00,
2013-02-24 22:40:00,26.3,23.7,30.21,ENE,65,0.0,0.0,90,0.00,,,0.00,WUHU216DAVISVP2,2013-02-25 03:40:00,
2013-02-24 22:45:00,26.2,23.6,30.21,ENE,65,0.0,0.0,90,0.00,,,0.00,WUHU216DAVISVP2,2013-02-25 03:45:00,
2013-02-24 22:50:00,26.1,23.3,30.21,ENE,65,0.0,0.0,89,0.00,,,0.00,WUHU216DAVISVP2,2013-02-25 03:50:00,
2013-02-24 22:55:00,26.0,23.2,30.21,ENE,65,0.0,0.0,89,0.00,,,0.00,WUHU216DAVISVP2,2013-02-25 03:55:00,
2013-02-24 23:00:00,25.9,23.3,30.21,ENE,65,0.0,0.0,90,0.00,,,0.00,WUHU216DAVISVP2,2013-02-25 04:00:00,
2013-02-24 23:05:00,25.9,23.3,30.21,ENE,65,0.0,0.0,90,0.00,,,0.00,WUHU216DAVISVP2,2013-02-25 04:05:00,
2013-02-24 23:10:00,25.9,23.3,30.21,ENE,65,0.0,0.0,90,0.00,,,0.00,WUHU216DAVISVP2,2013-02-25 04:10:00,
2013-02-24 23:15:00,25.7,23.1,30.21,ENE,65,0.0,0.0,90,0.00,,,0.00,WUHU216DAVISVP2,2013-02-25 04:15:00,
2013-02-24 23:20:00,25.4,22.8,30.21,ENE,65,0.0,0.0,90,0.00,,,0.00,WUHU216DAVISVP2,2013-02-25 04:20:00,
2013-02-24 23:25:00,25.5,22.9,30.21,ENE,65,0.0,0.0,90,0.00,,,0.00,WUHU216DAVISVP2,2013-02-25 04:25:00,
2013-02-24 23:30:00,25.2,22.6,30.21,ENE,65,0.0,0.0,90,0.00,,,0.00,WUHU216DAVISVP2,2013-02-25 04:30:00,
2013-02-24 23:35:00,25.1,22.5,30.21,ENE,65,0.0,0.0,90,0.00,,,0.00,WUHU216DAVISVP2,2013-02-25 04:35:00,
2013-02-24 23:40:00,25.0,22.7,30.21,ENE,65,0.0,0.0,91,0.00,,,0.00,WUHU216DAVISVP2,2013-02-25 04:40:00,
2013-02-24 23:45:00,25.0,23.0,30.21,ENE,65,0.0,0.0,92,0.00,,,0.00,WUHU216DAVISVP2,2013-02-25 04:45:00,
2013-02-24 23:50:00,24.7,22.4,30.21,ENE,65,0.0,0.0,91,0.00,,,0.00,WUHU216DAVISVP2,2013-02-25 04:50:00,
2013-02-24 23:55:00,24.4,22.1,30.21,ENE,65,0.0,0.0,91,0.00,,,0.00,WUHU216DAVISVP2,2013-02-25 04:55:00,